Regional Weather Roundup
Issued by NWS

Home | Current Version | Previous Version | Text Only | Print | Product List | Glossary Off
Versions: 1 2 3 4 5 6 7 8 9 10 11 12 13 14 15 16 17 18 19 20 21 22 23 24 25 26 27 28 29 30 31 32 33 34 35 36 37 38 39 40 41 42 43 44 45 46 47 48 49 50

987
ASUS45 KTFX 241210
RWRMT
MONTANA REGIONAL WEATHER ROUNDUP
NATIONAL WEATHER SERVICE GREAT FALLS MT
500 AM MST TUE JAN 24 2017

NOTE: "FAIR" INDICATES FEW OR NO CLOUDS BELOW 12000 FEET WITH NO
SIGNIFICANT WEATHER AND/OR OBSTRUCTIONS TO VISIBILITY.

MTZ001>007-043-241300-
WEST OF THE DIVIDE

CITY           SKY/WX    TMP DP  RH WIND       PRES   REMARKS
KALISPELL      MOCLDY     7   4  87 CALM      29.90R
MISSOULA       CLOUDY    21  16  81 SE8       29.89R WCI  11
BUTTE          CLOUDY     9   6  88 SE5       29.75R
MULLAN PASS    CLOUDY    17  15  92 N5        29.75R FOG
ANACONDA         N/A      9   5  85 SW5       29.80R
DEER LODGE       N/A      9   5  85 CALM      29.84R
EUREKA           N/A     12   9  85 CALM      29.94R
HAMILTON         N/A     19  16  86 CALM      29.84R
RONAN            N/A     20  17  88 CALM      29.91R
$$

MTZ008-052>055-241300-
SOUTHWEST MONTANA

CITY           SKY/WX    TMP DP  RH WIND       PRES   REMARKS
BOZEMAN        LGT SNOW  20  16  84 SW5       29.78R FOG
DILLON         CLOUDY    19  13  77 E7        29.71R WCI  10
W YELLOWSTONE  LGT SNOW  18  14  86 CALM      29.60R
ENNIS          CLOUDY    18  14  86 N21G26    29.73R WCI   1
TWIN BRIDGES     N/A     19  10  68 N12       29.74R WCI   7
$$

MTZ009-010-012-014-046-048-049-054-241300-
EAST SLOPES AND CENTRAL MONTANA

CITY           SKY/WX    TMP DP  RH WIND       PRES   REMARKS
CUT BANK       CLOUDY     9   6  88 NW3       29.83R
GREAT FALLS    CLOUDY    15  12  88 SW7       29.85S WCI   5
MALMSTROM AFB  CLOUDY    17  15  94 SW3       29.87S
HELENA         CLEAR     11   7  84 W8        29.85R WCI  -1
BOWMANS CRNR   MOCLDY    10   8  95 SW10      29.80S WCI  -4
CHOTEAU          N/A      9   7  92 SW7       29.85R WCI  -3
POWER          CLOUDY    15  13  92 SW9       29.84R WCI   3
RAYNESFORD       N/A     10   8  91 CALM      29.84R
ULM            MOCLDY    17  14  88 MISG      29.86S
$$

MTZ011-013-016-021-045-047-050-051-241300-
NORTH CENTRAL MONTANA

CITY           SKY/WX    TMP DP  RH WIND       PRES   REMARKS
HAVRE          CLOUDY    20  18  92 NW6       29.89R WCI  12
LEWISTOWN      CLOUDY    16  13  88 W7        29.81S WCI   6
CHINOOK          N/A     19  16  86 NW10      29.90R WCI   8
DENTON         CLOUDY    18  17  95 SW16G23   29.81S WCI   3
FORT BENTON      N/A     21  16  79 MISG      29.91R
GEYSER         MOCLDY    13  10  90 SW8       29.82S WCI   1
GRASS RANGE    FLURRIES  18  15  88 W13       29.79S WCI   4
JUDITH GAP     CLOUDY    14  12  90 N18       29.77S WCI  -3
ROY            FLURRIES  18  17  94 MISG      29.81F
STANFORD       MOCLDY    12  10  94 W3        29.81R
WINIFRED       CLOUDY    18  17  96 W9        29.83S WCI   7
$$

MTZ017>020-022>027-061-062-241300-
NORTHEAST MONTANA

CITY           SKY/WX    TMP DP  RH WIND       PRES   REMARKS
GLASGOW        CLOUDY    20  16  84 VRB3      29.87S
JORDAN           N/A     20  17  88 W5        29.87R
SIDNEY         FLURRIES  21  17  84 NW8       29.88S WCI  11
WOLF POINT     CLOUDY    22  15  75 W5        29.90R
PLENTYWOOD       N/A     18  12  79 W7        29.86R WCI   8
$$

MTZ028>42-056>058-241300-
SOUTHCENTRAL AND SOUTHEAST MONTANA

CITY           SKY/WX    TMP DP  RH WIND       PRES   REMARKS
BAKER          CLOUDY    21  18  88 N12       29.81S WCI   9
BILLINGS       LGT SNOW  22  21  96 NE7       29.81R FOG     WCI  13
LIVINGSTON     LGT SNOW  19  14  81 N6        29.76R WCI  11
MILES CITY     CLOUDY    22  18  85 N5        29.85S
BIG TIMBER     CLOUDY    21  19  93 NE8       29.80R WCI  12
FORSYTH          N/A     21  21 100 CALM      29.85S
HARLOWTON      MOCLDY    15  13  88 N14       29.78S WCI   1
LAUREL           N/A     23  18  81 N6        29.81R WCI  16
$$

REGIONAL REPORTS...DAKOTAS

CITY           SKY/WX    TMP DP  RH WIND       PRES   REMARKS
WILLISTON      CLOUDY    21  16  81 NW10      29.87S WCI  10
MINOT          CLOUDY    24  19  81 W12       29.84S WCI  13
DICKINSON      CLOUDY    20  17  88 NW6       29.80F WCI  12
BEACH          CLOUDY    19  19 100 NW9       29.85F WCI   9
CROSBY         CLOUDY    18  18 100 NW7       29.88S WCI   8
TIOGA          CLOUDY    18  18 100 NW10      29.85S WCI   6
WATFORD CITY   CLOUDY    21  18  86 NW6       29.87R WCI  14
BISMARCK       CLOUDY    25  19  78 NW6       29.87S WCI  18
GRAND FORKS    CLOUDY    26  20  77 W8        29.87S WCI  18
FARGO          CLOUDY    31  25  78 NW12      29.88R WCI  22
BUFFALO SD       N/A     23  19  85 N8        29.71R WCI  14
RAPID CITY     FRZ RAIN  22  20  92 N20G26    29.72S VSB 1   WCI   7
$$

REGIONAL REPORTS...WYOMING/IDAHO/WASHINGTON

CITY           SKY/WX    TMP DP  RH WIND       PRES   REMARKS
GILLETTE       LGT SNOW  17  15  92 N9        29.69R VSB 1   WCI   6
SHERIDAN       LGT SNOW  20  17  88 W6        29.77R FOG     WCI  12
BUFFALO WY     LGT SNOW  18  13  80 N26G35    29.67R VSB 3/4 WCI  -1
CODY           LGT SNOW  19  15  84 N13       29.69R FOG     WCI   6
YELLOWSTONE LA   N/A     15  11  83 CALM      29.56R
IDAHO FALLS    LGT SNOW  23  22  96 W12G20    29.63R FOG     WCI  12
SALMON         CLOUDY    12  10  92 CALM      29.76R
BOISE          CLOUDY    27  22  81 NW12      29.75R WCI  17
SPOKANE        SNOW      29  29 100 SW3       29.92S VSB 1/4
$$

REGIONAL REPORTS...ALBERTA

CITY           SKY/WX    TMP DP  RH WIND       PRES   REMARKS
EDMONTON       CLOUDY    16   9  73 SW2       29.88S
CALGARY        FOG       14  12  92 VRB2      29.83S VSB 1/2
LETHBRIDGE     CLOUDY    12 N/A N/A E3        29.87S
MEDICINE HAT   CLOUDY    16  14  93 W6        29.91S WCI   7
WATERTON GATE    N/A     18  12  79 W3          N/A
CARDSTON         N/A     18  12  79 S2          N/A
MILK RIVER       N/A      5   3  92 NW1         N/A
$$

REGIONAL REPORTS...SASKATCHEWAN

CITY           SKY/WX    TMP DP  RH WIND       PRES   REMARKS
SWIFT CURRENT  FLURRIES  10   9  92 NW13      29.83R WCI  -5
REGINA         FLURRIES  14  12  92 NW12      29.86R WCI   0
SASKATOON      FLURRIES   9   5  85 NW8       29.92S WCI  -4
VAL MARIE        N/A     18  14  86 NW8         N/A  WCI   7
ROCKGLEN         N/A     12  10  92 NW8         N/A  WCI   1
$$




USA.gov is the U.S. government's official web portal to all federal, state and local government web resources and services.